Meteo Giornale » Osservazioni meteo Italia » Catania-Fontanarossa

ore: 11:50 - Osservazioni Meteo Catania-Fontanarossa
Lat. 37° 28' N Lon. 15° 3' E Alt. 11 metri s.l.m.

sereno Europe/Rome

28 °C

Sereno

Temp. 24 Ore

17 °C

28 °C

Est

18.5 Km/h

Dew point 17 °C

Umidità 51 %

Visibilità  10 Km

Il sole sorge alle ore 05:37

Il sole tramonta alle ore 20:25

Data e Ora Cielo e Fenomeni T °C DP °C Um. % Pres. hPa Vis. km Vento km/h
Oggi h: 11:50 sereno Sereno 28 17 51 1013 10 E 18.5
Oggi h: 11:20 sereno Sereno 27 18 57 1013 10 E 16.7
Oggi h: 10:50 sereno Sereno 28 17 51 1013 10 E 13
Oggi h: 10:20 poco_nuvoloso Poco Nuvoloso 27 17 54 1013 10 E/SE 11.1
Oggi h: 09:50 poco_nuvoloso Poco Nuvoloso 27 15 47 1013 10 N 5.5
Oggi h: 09:20 sereno Sereno 26 16 54 1013 10 N 5.5
Oggi h: 08:50 sereno Sereno 25 17 61 1013 10 N 5.5
Oggi h: 08:20 poco_nuvoloso Poco Nuvoloso 24 17 64 1013 10 O/SO 7.4
Oggi h: 07:50 poco_nuvoloso Poco Nuvoloso 22 17 73 1013 10 SO 7.4
Oggi h: 07:20 sereno Sereno 20 17 82 1013 10 N 3.7
Oggi h: 06:50 sereno Sereno 19 17 88 1013 10 N 5.5
Oggi h: 06:20 sereno Sereno 17 16 93 1012 10 O/SO 9.3
Oggi h: 05:50 sereno Sereno 17 16 93 1012 10 N 3.7
Oggi h: 05:20 sereno Sereno 18 16 88 1012 10 N 5.5
Oggi h: 04:50 sereno Sereno 18 16 88 1012 10 N 5.5
Oggi h: 04:20 sereno Sereno 18 16 88 1012 10 O/SO 7.4
Oggi h: 03:50 sereno Sereno 19 17 88 1012 10 O 11.1
Oggi h: 03:20 sereno Sereno 20 18 88 1012 10 N 5.5
Oggi h: 02:50 sereno Sereno 20 18 88 1012 10 N 3.7
Oggi h: 02:20 sereno Sereno 21 19 88 1012 10 N 5.5
Oggi h: 01:50 sereno Sereno 20 18 88 1012 10 O 9.3
Oggi h: 01:20 sereno Sereno 22 19 83 1012 10 N 3.7
Oggi h: 00:50 sereno Sereno 22 20 88 1012 10 N 3.7
Oggi h: 00:20 sereno Sereno 22 20 88 1013 10 N 5.5
Ieri h: 23:50 sereno Sereno 22 19 83 1012 10 O/NO 7.4
Ieri h: 23:20 poco_nuvoloso Poco Nuvoloso 22 20 88 1012 10 N 5.5
Ieri h: 22:50 poco_nuvoloso Poco Nuvoloso 22 20 88 1012 10 N 3.7
Ieri h: 22:20 poco_nuvoloso Poco Nuvoloso 23 20 83 1012 10 N 5.5
Ieri h: 21:50 poco_nuvoloso Poco Nuvoloso 23 19 78 1012 10 N 5.5
Ieri h: 21:20 poco_nuvoloso Poco Nuvoloso 23 19 78 1012 10 E 13
Ieri h: 20:50 nuvoloso Nuvoloso 24 19 73 1011 10 E/NE 16.7
Ieri h: 20:20 nuvoloso Nuvoloso 24 18 69 1011 10 E/NE 18.5
Ieri h: 19:50 nuvoloso Nuvoloso 25 19 69 1011 10 E 20.3
Ieri h: 19:20 nuvoloso Nuvoloso 25 18 65 1011 10 E 16.7
Ieri h: 18:50 nuvoloso Nuvoloso 26 17 57 1011 10 E 16.7
Ieri h: 18:20 nuvoloso Nuvoloso 27 16 50 1011 10 E/NE 14.8
Ieri h: 17:50 nuvoloso Nuvoloso 27 16 50 1011 10 E/NE 11.1
Ieri h: 17:20 nuvoloso Nuvoloso 26 18 61 1011 10 E/NE 14.8
Ieri h: 16:50 nuvoloso Nuvoloso 26 17 57 1011 10 NE 14.8
Ieri h: 16:20 nuvoloso Nuvoloso 26 18 61 1011 10 NE 22.2
Ieri h: 14:50 nuvoloso Nuvoloso 28 18 54 1011 10 E/NE 27.8
Ieri h: 14:20 nuvoloso Nuvoloso 26 18 61 1011 10 E/NE 25.9
Ieri h: 13:50 poco_nuvoloso Poco Nuvoloso 27 17 54 1012 10 E/NE 27.8
Ieri h: 13:20 poco_nuvoloso Poco Nuvoloso 26 19 65 1012 10 E/NE 25.9
Ieri h: 12:50 poco_nuvoloso Poco Nuvoloso 27 19 61 1012 10 E 24